Location: Newark
(3.1475°N, 101.6933°E)
Time: 07:49:35
(UTC+00:00)

Envisat - Pass Details

Date: 25 September 2019
Orbit: 764 x 766 km, 98.1° (Epoch: 19 October)

Event Time Altitude Azimuth Distance (km) Brightness Sun altitude
Rises 12:44:48 0° 199° (SSW) 3,228 6.5 -25.0°
Reaches altitude 10° 12:47:52 10° 218° (SW) 2,300 5.9 -25.7°
Maximum altitude 12:51:05 17° 258° (WSW) 1,854 5.8 -26.5°
Drops below altitude 10° 12:54:19 10° 298° (WNW) 2,296 6.2 -27.3°
Sets 12:57:23 0° 318° (NW) 3,219 6.8 -28.1°
